Theta_e
304 306 308 308 311 313 312 311 308 307 305 303 302 300 299 299 298 296 295 293 292 291 291 291 290 291 290 291 291 291 289 289 286 288 289 289 288 288 289 289 289 289 290
299 301 301 302 304 304 303 302 302 300 299 297 295 294 293 292 292 292 290 290 289 289 288 289 288 288 288 288 288 287 287 288 286 283 286 286 286 287 287 287 287 288 288
296 297 297 297 299 298 297 296 295 294 293 292 292 291 290 289 289 289 289 288 287 287 287 287 287 286 285 286 286 286 286 286 286 284 283 286 286 287 287 287 287 288 288
294 294 294 294 294 294 293 292 291 291 290 290 289 288 287 287 287 287 287 286 286 286 286 286 286 285 285 285 285 285 285 285 285 284 284 284 285 286 286 284 284 287 286
292 291 290 290 290 290 289 289 288 288 288 288 287 287 286 286 285 286 286 286 285 285 285 285 285 285 286 286 285 285 285 284 284 283 283 283 283 283 283 284 283 284 285
290 289 287 288 288 287 287 286 286 286 286 286 286 286 287 286 289 288 286 285 284 284 283 284 284 283 286 286 286 286 286 284 284 282 282 282 282 283 284 283 282 281 278
288 286 286 286 285 285 285 285 284 284 284 284 285 286 286 287 289 288 286 284 284 284 284 284 283 284 284 284 285 286 285 286 286 285 282 283 283 284 283 282 282 281 280
286 286 285 285 284 284 284 283 283 283 283 283 283 285 285 287 288 287 285 284 284 284 284 284 284 283 284 284 284 284 284 285 285 285 285 285 286 286 285 283 283 282 282
285 285 284 284 283 283 282 282 281 282 281 281 282 283 284 285 288 287 285 284 284 284 284 284 283 283 284 286 285 283 283 284 286 287 287 288 288 287 285 284 281 280 278
285 284 284 284 284 283 282 281 280 281 280 281 280 280 279 283 288 287 285 284 283 283 283 283 283 283 285 286 283 281 278 282 283 284 285 285 285 284 284 283 282 279 278
283 282 282 282 282 281 280 280 280 280 279 278 278 277 278 280 284 287 286 283 283 282 282 281 282 284 284 285 285 280 280 283 283 282 282 281 280 281 281 282 282 280 278
282 281 281 280 281 280 280 278 278 278 277 276 276 276 277 278 281 286 286 285 285 281 281 281 281 284 283 283 281 281 280 278 277 276 276 276 278 279 279 280 279 279 280
281 281 280 279 279 279 278 277 276 276 276 275 276 276 276 277 279 284 284 284 284 281 281 281 282 281 279 276 277 276 272 272 272 271 272 274 275 276 276 276 276 276 275
280 278 277 277 275 275 276 277 276 275 275 276 276 276 276 276 276 277 279 279 280 280 281 276 278 276 275 273 270 270 271 270 270 269 270 271 273 272 272 273 272 273 272
278 276 275 275 275 274 275 275 275 276 278 276 277 277 275 275 276 279 278 276 275 277 271 268 269 269 268 268 267 267 268 268 267 268 268 268 269 270 270 271 270 271 270
275 275 274 274 273 273 273 273 277 278 279 280 279 277 275 277 280 282 282 282 281 278 267 267 267 266 267 266 265 266 266 265 266 266 266 266 266 266 267 268 269 269 268
276 274 273 273 272 272 274 274 273 274 279 281 281 281 280 278 281 282 281 280 277 271 266 263 265 265 264 264 264 264 264 265 263 264 264 264 264 264 264 265 266 267 267
270 271 273 273 273 274 273 272 272 272 271 272 277 281 282 281 281 280 280 275 268 262 261 262 262 261 261 262 262 262 262 262 262 262 262 262 261 261 262 263 264 264 265
271 271 271 271 273 272 270 270 271 269 269 268 267 271 270 279 281 279 280 267 264 262 259 258 259 259 259 259 260 259 259 260 260 259 260 259 259 260 260 261 262 261 262
267 268 270 270 270 268 267 268 267 265 265 265 263 268 263 264 266 266 264 261 260 260 259 259 258 257 257 257 258 258 258 257 258 258 258 258 259 258 259 259 260 260 261
267 265 265 265 267 268 269 268 268 265 265 265 266 266 267 266 267 264 262 257 259 259 258 257 257 256 256 256 255 256 256 258 257 256 256 257 257 258 258 259 259 259 260
262 263 263 265 266 266 268 268 266 266 266 266 263 262 272 269 263 262 260 259 258 258 258 258 257 256 257 257 257 257 258 257 257 256 256 255 255 256 256 257 257 258 259
260 260 260 261 264 265 264 264 265 264 264 262 263 263 262 264 262 261 260 259 257 255 254 254 256 257 258 258 259 259 259 259 258 257 256 256 255 256 255 256 257 256 257
259 261 261 261 260 261 262 263 262 263 263 263 262 261 261 262 260 258 257 258 256 257 257 257 258 259 260 260 259 258 258 258 257 256 255 255 255 254 255 254 255 255 256
256 257 259 260 260 262 261 260 261 261 260 260 259 259 259 260 258 258 259 259 260 260 260 260 260 260 259 260 260 259 256 258 258 254 253 253 254 253 253 253 255 255 255
255 256 257 257 258 258 259 261 260 261 261 261 261 260 260 261 261 261 261 261 261 261 261 261 261 260 259 259 259 259 258 259 256 256 254 254 253 254 253 253 253 254 255
Wind_Speed
3 3 4 4 5 5 5 6 7 8 8 9 8 8 7 8 8 8 8 7 10 8 7 8 8 6 4 5 4 4 4 2 2 2 2 7 8 10 9 8 8 8 9
4 4 4 4 6 7 7 7 7 8 7 10 9 9 8 7 7 9 8 7 9 8 8 7 7 5 7 6 4 5 4 3 2 4 6 7 10 10 10 10 8 8 9
5 5 6 5 7 8 8 8 7 8 8 10 10 9 9 7 8 8 8 9 8 7 6 7 7 7 6 4 4 4 4 3 3 4 6 7 7 7 9 8 8 8 7
5 5 7 5 6 8 8 8 8 7 10 10 9 8 8 8 8 8 8 9 8 7 7 7 7 7 6 6 5 4 3 3 3 4 5 7 7 8 8 11 11 8 11
5 5 5 6 7 8 8 8 7 8 8 9 10 8 7 7 5 8 7 8 9 8 7 7 7 6 8 5 3 2 1 2 2 4 6 7 8 9 11 10 10 11 10
6 6 6 6 7 8 8 9 8 9 8 9 8 8 7 5 11 12 10 7 7 7 7 6 5 5 4 4 4 2 2 1 3 5 4 7 7 8 8 9 10 11 13
7 7 6 7 8 7 8 9 9 8 7 8 7 8 8 7 13 13 12 6 6 6 6 5 4 2 3 2 3 2 3 4 5 5 5 7 7 8 8 10 9 9 11
8 8 8 8 8 8 8 8 7 7 8 7 7 7 8 7 13 13 11 6 5 5 5 4 3 2 2 2 3 3 3 4 5 3 5 8 6 6 6 8 10 10 9
9 9 9 9 10 9 9 8 6 7 5 5 5 7 8 7 13 13 9 5 6 5 5 5 3 2 2 2 2 3 4 3 4 11 11 12 13 14 11 6 7 9 10
9 8 8 8 9 9 8 8 3 4 5 5 6 5 5 6 13 12 9 5 5 5 4 4 3 2 1 4 2 3 3 4 8 6 5 6 7 7 11 5 7 9 9
7 8 7 6 8 7 7 3 6 7 7 6 6 4 4 4 6 10 11 4 4 4 3 2 0 2 4 6 6 3 4 8 9 6 5 5 5 6 5 5 6 7 8
9 9 9 8 7 7 8 6 6 8 7 6 6 4 2 2 4 8 9 7 5 3 3 2 2 5 4 5 4 7 9 7 4 4 4 4 5 5 7 7 8 8 7
9 9 8 7 6 6 8 7 5 5 5 5 5 5 4 3 2 8 7 7 6 3 2 3 0 2 3 3 4 6 4 4 4 3 4 5 6 7 7 7 7 7 8
9 8 7 7 6 4 4 5 6 6 6 6 5 5 4 4 4 4 4 3 3 2 4 2 2 4 4 3 2 4 3 3 2 3 4 5 5 6 6 7 7 7 6
7 7 6 5 6 5 3 4 4 2 4 6 5 6 7 7 7 8 6 4 3 4 5 1 1 1 1 0 1 2 1 3 3 3 3 5 5 6 5 6 5 7 5
8 7 7 6 5 5 5 4 4 6 9 7 7 7 3 4 11 13 10 9 8 11 3 2 2 2 2 1 1 2 1 2 3 3 3 4 5 6 6 7 6 6 7
7 7 6 6 6 7 6 6 6 1 4 9 9 11 11 8 12 12 10 9 6 5 2 2 3 3 3 3 3 3 2 1 2 2 3 3 4 4 5 6 6 6 7
3 5 6 6 6 6 6 5 4 5 5 3 7 10 13 13 13 12 12 6 3 1 2 4 4 4 4 4 3 2 2 2 2 2 3 2 2 3 4 5 6 7 8
6 5 4 4 5 5 4 3 4 3 4 3 2 4 3 13 14 14 15 4 4 4 3 4 4 4 4 4 3 3 3 2 2 2 2 2 2 2 3 3 5 7 8
4 6 6 5 5 5 5 5 5 5 5 5 5 6 3 2 3 4 3 4 4 4 4 5 5 4 4 4 3 3 3 3 3 3 3 3 3 2 3 3 4 5 6
3 2 4 3 4 5 5 7 7 6 7 7 8 6 12 7 8 6 6 6 6 5 5 5 4 4 4 4 4 4 5 5 4 4 4 4 3 3 3 3 4 4 4
2 3 4 5 4 5 6 5 5 6 7 6 3 3 15 8 6 5 6 5 6 5 4 4 4 5 5 6 6 5 6 6 5 5 5 4 4 4 4 4 4 5 5
3 3 2 1 2 3 2 3 5 5 4 3 3 5 5 6 5 6 6 5 4 5 4 4 5 5 5 6 6 6 7 7 7 5 5 5 5 5 4 4 4 5 5
3 4 5 5 5 5 6 6 7 8 8 7 6 6 5 6 6 6 5 4 4 5 5 5 6 8 6 7 6 6 7 7 5 6 7 5 6 5 4 4 5 6 6
2 2 4 4 4 6 5 5 5 5 6 6 6 6 6 7 6 6 6 5 6 6 7 6 6 9 11 12 11 10 9 11 9 8 5 6 8 7 6 4 5 6 6
3 4 4 3 4 5 6 6 6 7 7 6 7 6 7 6 6 6 6 7 6 6 7 6 7 11 11 10 12 12 11 12 11 12 7 7 7 7 5 7 8 6 8
Wind_Direction
146 166 169 181 167 143 135 129 124 122 119 109 105 100 100 98 93 85 92 109 102 108 106 107 103 113 99 79 73 72 72 82 219 288 295 334 335 337 334 329 314 319 321
145 139 123 125 117 119 118 115 117 113 107 118 105 102 100 99 103 115 115 118 115 122 116 113 110 103 88 83 85 86 72 61 1 316 312 336 331 332 325 322 330 318 316
128 129 115 118 125 119 115 108 101 112 120 107 111 113 112 116 115 111 115 109 109 113 122 111 114 112 101 102 87 80 59 39 21 334 317 327 324 324 327 332 330 327 321
138 143 124 125 114 115 114 115 107 125 116 108 110 116 116 118 112 113 115 112 106 109 105 104 110 110 117 116 98 84 63 35 10 341 325 325 325 341 333 335 337 343 331
136 123 125 114 108 108 107 106 109 106 107 118 118 109 111 112 124 125 123 117 127 121 110 111 115 122 117 118 124 103 85 36 4 333 325 332 338 337 347 336 324 326 330
140 132 127 124 122 121 120 121 118 113 121 116 114 118 117 106 132 131 126 128 131 127 130 130 129 125 118 105 83 69 4 10 341 331 323 316 321 328 330 330 325 333 335
142 140 140 136 127 131 128 121 122 125 120 117 121 125 124 122 129 128 126 126 129 134 132 127 129 152 147 166 228 317 330 300 312 286 274 288 304 321 320 323 321 318 311
156 153 149 144 138 133 126 127 127 132 134 138 135 136 128 127 132 129 133 130 121 120 120 130 132 150 225 243 255 289 318 291 284 271 265 270 278 297 308 312 310 303 294
166 165 158 150 145 147 145 146 131 132 128 135 138 134 134 138 145 143 132 124 127 132 145 143 135 143 244 293 275 285 293 275 290 301 300 289 296 319 328 327 315 312 315
170 162 152 150 151 154 146 136 113 123 122 133 128 137 135 140 155 155 149 147 145 154 159 153 121 166 313 300 314 319 315 294 308 295 313 301 292 291 308 306 305 311 314
133 134 141 142 141 138 128 122 142 138 131 133 133 147 155 162 170 164 160 164 164 163 170 171 243 317 290 327 343 336 280 313 314 309 320 315 306 302 302 304 301 306 300
138 143 148 148 144 147 142 133 134 140 139 142 133 129 139 159 187 172 177 180 178 154 174 174 239 269 292 324 343 327 341 338 353 340 330 325 326 328 321 320 310 300 288
144 150 143 127 133 143 148 147 136 133 141 153 165 168 177 180 184 182 187 194 191 169 161 212 234 30 64 52 20 15 13 12 6 357 345 332 330 320 320 320 316 308 292
143 138 129 140 131 114 110 140 149 167 170 172 174 176 177 188 195 194 196 198 201 142 138 78 110 106 84 84 47 18 16 15 1 351 333 318 318 328 332 333 323 327 314
134 133 140 138 151 146 147 167 175 189 182 180 192 178 177 200 208 194 178 180 180 187 114 104 160 174 192 96 29 350 7 19 13 354 340 341 333 336 330 333 324 327 317
148 159 166 158 155 152 155 147 211 208 204 207 199 182 196 214 191 199 201 207 210 154 96 181 196 206 228 208 269 296 290 353 349 338 340 342 336 334 328 331 333 333 324
167 162 158 158 166 169 177 180 176 214 237 217 209 197 193 199 204 200 206 201 190 128 171 194 211 202 208 210 220 222 253 312 322 315 319 336 337 330 330 333 335 332 323
114 146 168 173 175 179 182 183 169 184 196 201 242 210 211 209 211 208 210 147 183 98 193 200 212 205 206 215 212 222 245 287 291 298 296 326 341 325 334 337 335 327 325
167 168 158 151 172 170 161 161 190 181 201 191 209 247 215 231 215 220 219 177 205 218 206 217 208 202 207 212 221 225 234 249 254 277 271 286 300 303 321 321 323 320 320
176 169 178 178 176 176 168 184 195 209 216 222 213 215 165 116 193 201 193 185 200 222 205 217 208 208 218 218 223 227 235 240 254 255 259 261 267 266 285 304 315 326 324
169 149 158 152 190 202 204 205 206 197 214 217 229 205 200 196 206 205 204 206 210 216 210 206 203 214 210 216 223 222 234 247 232 246 253 253 252 268 261 276 288 289 297
165 171 176 203 189 204 218 218 208 212 219 227 213 206 229 219 211 211 214 219 218 220 208 200 205 204 203 208 209 223 235 238 237 238 241 240 244 253 266 269 285 288 292
174 185 198 218 210 216 218 217 228 230 229 192 197 203 206 237 218 217 214 214 214 221 210 210 218 222 215 218 216 215 227 232 220 205 227 234 238 250 242 263 269 274 276
192 212 214 210 197 203 212 217 214 217 222 219 215 219 217 226 228 223 233 230 214 232 220 209 219 222 230 223 216 217 223 232 214 216 210 227 241 231 244 243 252 256 264
211 215 219 224 221 236 242 243 236 231 227 220 219 212 209 225 215 215 218 222 222 220 224 217 216 226 231 236 235 224 221 235 226 204 201 211 230 227 230 231 249 255 252
213 217 224 216 224 217 222 232 224 225 226 220 221 217 218 223 227 224 220 219 220 221 224 223 227 229 233 239 243 244 236 233 228 224 207 209 224 234 218 231 236 239 244